Location: Chelun
(47.8553°N, 1.2230°W)
Time: 08:17:40
(UTC+00:00)

Daily predictions for brighter satellites

Satellite Brightness Start Highest point End
(mag) Time Altitude Azimuth Time Altitude Azimuth Time Altitude Azimuth
Radarsat Rocket 3.9 16:36:18 10° SSE 16:42:15 78° ENE 16:48:05 10° NNW
Cosmos 1484 Rocket 4.4 16:40:29 10° S 16:44:18 42° W 16:48:08 10° NNW
ATLAS 2AS CENTAUR R/B 4.1 16:46:17 10° W 16:53:34 36° NNW 17:00:42 10° NE
Aureole 1 Rocket 2.7 16:51:05 10° S 16:53:59 43° ESE 16:57:18 10° NE
STARLINK-60 3.3 16:51:41 10° WSW 16:55:02 64° NNW 16:58:24 10° ENE
BREEZE-M R/B 3.3 16:48:34 10° W 16:55:33 72° N 16:59:01 10° E
Cosmos 1980 3.9 16:50:47 10° SSW 16:56:26 80° WNW 17:02:08 10° NNE
NOAA 6 4.4 16:52:50 10° S 16:57:55 70° WSW 17:03:04 10° NNW
Cosmos 1441 Rocket 3.5 16:58:03 10° N 17:01:42 43° ENE 17:05:17 10° SSE
H-2A R/B 2.9 17:02:06 10° SE 17:05:37 45° ENE 17:09:10 10° N
Genesis I 4.0 17:03:15 10° NW 17:07:04 55° WSW 17:10:49 10° SSE
SMAP 3.1 17:02:34 10° SSE 17:07:08 58° ENE 17:11:43 10° N
Cosmos 2297 3.7 17:02:54 10° NNW 17:08:39 77° ENE 17:14:18 10° SSE
COBE Rocket 4.1 17:05:40 10° NNE 17:10:10 46° E 17:14:44 10° S
Okean O Rocket 2.6 17:06:03 10° S 17:10:16 51° W 17:14:32 10° NNW
STARLINK-52 3.2 17:06:56 10° WSW 17:10:26 78° NNW 17:13:24 14° ENE
Okean 1-7 3.5 17:07:16 10° SSE 17:11:21 40° E 17:15:29 10° NNE
Cosmos 1666 2.5 17:08:54 10° N 17:12:40 80° E 17:16:24 10° SSE
Cosmos 1867 3.6 17:08:20 10° NW 17:13:48 66° NE 17:19:12 10° SE
CZ-4 R/B 2.7 17:12:03 10° ESE 17:14:39 18° ENE 17:17:15 10° NNE
BREEZE-M DEB (TANK) 2.7 17:09:57 10° W 17:15:41 68° S 17:18:31 11° ESE
Cosmos 1908 Rocket 3.5 17:12:06 10° N 17:16:30 86° ENE 17:20:51 10° S
USA 215 3.4 17:10:07 11° ENE 17:16:31 68° SE 17:23:02 10° SW
Abrixas rocket 3.8 17:15:23 10° SSW 17:17:45 21° SSE 17:19:38 13° ESE
YAOGAN 6 3.8 17:15:04 10° ESE 17:17:52 22° ENE 17:20:41 10° NNE
STARLINK-29 3.4 17:15:05 10° WSW 17:18:36 65° NNW 17:21:14 17° ENE
Cosmos 2242 Rocket 3.7 17:14:29 10° S 17:19:04 85° W 17:23:41 10° N
Exosat Rocket 4.1 17:14:23 10° SW 17:19:22 55° WNW 17:24:29 10° NNE
ALOS 4.2 17:16:03 10° SSW 17:20:14 33° W 17:24:28 10° NNW
Cosmos 614 Rocket 4.0 17:16:27 10° S 17:21:24 56° ESE 17:26:23 10° NNE
Cosmos 1092 Rocket 4.0 17:16:36 10° S 17:22:51 74° E 17:29:05 10° NNE
IRS-1C Rocket 4.1 17:18:04 10° SSE 17:23:20 88° ENE 17:28:39 10° NNW
Cosmos 1975 3.6 17:20:19 10° N 17:23:55 30° ENE 17:27:29 10° SE
Cosmos 1190 Rocket 4.2 17:19:07 10° S 17:24:07 50° ESE 17:29:07 10° NNE
COSMO-SKYMED 1 3.7 17:23:32 14° NE 17:26:08 23° E 17:29:38 10° SSE
COSMOS 2428 4.5 17:24:04 10° WSW 17:28:46 26° NW 17:33:31 10° N
YAOGAN 1 3.6 17:26:47 10° ESE 17:30:11 23° ENE 17:33:35 10° NNE
CZ-4B R/B 4.1 17:27:46 10° NNW 17:30:15 19° WNW 17:32:42 10° WSW
Meteor 1-27 Rocket 4.5 17:25:29 10° SSW 17:31:11 57° WNW 17:37:01 10° N
Cosmos 921 Rocket 3.2 17:30:46 10° NNW 17:35:04 73° WSW 17:39:25 10° S
Lacrosse 4 Rocket 3.5 17:34:58 10° N 17:36:09 12° NNE 17:36:09 12° NNE
Okean 3 4.5 17:34:02 10° SE 17:37:26 25° E 17:38:36 22° ENE
Okean-O 2.6 17:33:14 10° SSE 17:37:37 63° ENE 17:42:01 10° N
Cosmos 1174 4.0 17:33:06 10° SW 17:37:56 79° NW 17:40:53 17° NNE
Cosmos 1943 4.4 17:37:31 10° SSE 17:41:40 21° E 17:42:49 20° E
Cosmos 1140 Rocket 3.4 17:45:04 10° S 17:50:08 66° ESE 17:54:14 16° NNE
USA 267 3.3 17:44:54 10° SE 17:51:29 84° SW 17:58:04 10° NW
Cosmos 2369 Rocket 2.3 17:46:30 10° NNW 17:52:02 54° ENE 17:57:35 10° SE
NOSS 3-1 (C) 4.1 17:45:01 10° NW 17:52:11 57° NE 18:00:27 10° ESE
Cosmos 1743 2.7 17:49:34 10° N 17:53:27 83° W 17:57:20 10° S
Cosmos 1428 Rocket 4.4 17:48:14 10° S 17:54:26 80° E 18:00:44 10° N
STARLINK-43 3.3 17:51:46 10° SW 17:55:28 76° SSE 17:56:47 38° ENE
S3M 4.0 17:50:56 10° N 17:57:01 54° ENE 18:03:00 10° SSE
Envisat 2.9 17:52:54 10° SSE 17:57:59 90° ENE 18:03:06 10° NNW
Cosmos 1023 Rocket 4.3 17:53:29 10° SSW 17:58:34 80° ESE 18:02:33 17° NNE
SL-16 R/B 2.5 17:55:35 10° SW 18:01:15 70° WNW 18:06:14 14° NNE
Meteor 1-18 Rocket 4.1 17:56:36 10° S 18:02:17 81° E 18:07:53 10° NNE
Cosmos 468 Rocket 4.4 17:57:57 10° N 18:02:48 38° ENE 18:04:48 28° ESE
Cosmos 2151 Rocket 3.8 17:59:00 10° N 18:03:15 45° ENE 18:07:28 10° SSE
USA 229 DEB 3.8 17:56:34 10° NW 18:03:44 63° NE 18:10:45 12° SE
USA 229 3.8 17:56:41 10° NW 18:03:49 63° NE 18:10:44 12° ESE
STARLINK-67 2.5 18:01:40 10° WNW 18:04:16 71° NNW 18:04:16 71° NNW
Cosmos 1553 Rocket 4.0 18:00:42 10° N 18:07:09 82° E 18:13:34 10° S
Cosmos 407 Rocket 3.8 18:02:16 10° SSW 18:07:27 65° WNW 18:12:09 13° NNE
Cosmos 2237 Rocket 3.8 18:03:35 10° WSW 18:08:31 29° NW 18:13:27 10° NNE
Cosmos 1603 4.0 18:03:21 10° S 18:08:45 45° ESE 18:10:51 32° ENE
NOSS 3-1 (A) 4.2 18:02:04 10° NW 18:09:07 52° NE 18:14:13 23° ESE
Cosmos 1943 Rocket 2.1 18:04:49 10° NNW 18:10:30 85° ENE 18:16:06 10° SSE
FALCON 9 DEB 4.0 18:09:39 10° W 18:12:57 38° N 18:13:16 37° N
STARLINK-46 4.3 18:10:43 10° NW 18:12:11 24° NNW 18:12:11 24° NNW
Uosat 12 SS-18 rocket 4.1 18:09:02 10° NW 18:13:50 80° SW 18:17:43 13° SSE
SKYMED 2 3.4 18:12:12 27° NNE 18:14:30 70° ESE 18:18:49 10° S
Lacrosse 5 rocket 2.8 18:11:22 10° WNW 18:14:41 22° N 18:15:14 22° N
Cosmos 2026 Rocket 4.3 18:09:56 10° SSW 18:15:56 65° WNW 18:22:00 10° N
NOAA 15 4.5 18:10:59 10° SSE 18:16:11 68° ENE 18:21:25 10° N
FengYun 1-2 T 4.2 18:10:45 10° SSE 18:16:15 88° WSW 18:21:49 10° NNW
SL-4 R/B 1.8 18:15:02 10° WNW 18:18:52 71° NNE 18:19:21 62° ENE
STARLINK-80 3.3 18:16:06 10° SW 18:19:53 71° SSE 18:20:09 67° ESE
CZ-4C R/B 2.5 18:17:09 10° S 18:21:51 42° ESE 18:22:33 40° E
IRIDIUM 106 4.3 18:17:38 10° SSE 18:22:42 54° E 18:25:24 27° NNE
Okean 1 4.3 18:20:44 10° SSW 18:24:34 46° WNW 18:27:57 13° N
SeaSat 1 4.4 18:26:42 15° N 18:26:42 15° N 18:27:58 10° N
Lacrosse 5 2.1 18:21:49 10° SSW 18:26:44 50° SE 18:27:22 47° ESE
Cosmos 405 Rocket 2.6 18:23:22 10° NNW 18:27:05 81° W 18:30:49 10° S
CSL-04 Rocket 3.5 18:22:20 10° SSE 18:27:36 77° ENE 18:32:57 10° NNW
Okean 2 Rocket 3.4 18:25:12 10° NNW 18:29:41 66° W 18:34:08 10° S
USA 116 4.2 18:30:03 36° NNE 18:32:09 69° ESE 18:36:59 10° S
Meteor 2-4 Rocket 3.6 18:28:01 10° S 18:33:51 73° E 18:37:10 26° NNE
Cosmos 2221 Rocket 4.0 18:32:37 10° SSW 18:37:01 62° W 18:39:45 22° N
Ariane Rocket 4.4 18:43:50 25° N 18:43:50 25° N 18:46:02 10° N
Cosmos 1570 Rocket 4.5 18:37:14 10° NNW 18:41:08 42° NNE 18:41:08 42° NNE
Cosmos 883 Rocket 4.4 18:37:25 10° N 18:43:47 73° E 18:50:02 10° SSE
Gbstr 26 Del rocket 4.0 18:37:18 10° SW 18:44:11 56° SE 18:45:06 51° ESE
Cosmos 2315 Rocket 3.9 18:39:53 10° N 18:46:10 62° ENE 18:52:22 10° SSE
Cosmos 2344 4.3 18:37:27 10° NW 18:46:54 76° NE 18:58:09 16° SE
ATLAS 2AS CENTAUR R/B 4.3 18:40:38 10° NW 18:46:58 25° N 18:49:12 22° NNE
Cosmos 1763 Rocket 3.5 18:43:28 10° NNW 18:47:49 59° NNE 18:47:49 59° NNE
CZ-4 R/B 2.3 18:45:41 10° S 18:49:23 44° W 18:53:06 10° NNW
Meteor 2-8 Rocket 4.2 18:44:04 10° N 18:50:09 72° E 18:56:11 10° SSE
CSL-04 Debris 4.4 18:45:28 10° S 18:50:53 70° WSW 18:56:19 10° NNW
USA 215 3.6 18:57:28 41° NNE 18:59:27 55° NNW 19:05:47 10° W
Cosmos 2263 4.5 18:54:49 10° NNW 19:00:35 68° WSW 19:04:36 20° S
COSMO-SKYMED 1 3.8 19:00:45 28° NNW 19:02:26 39° WNW 19:06:28 10° SW
YAOGAN 1 3.7 19:01:57 10° S 19:06:03 42° W 19:10:11 10° NNW
Lacrosse 4 Rocket 4.0 19:12:05 10° NNW 19:12:29 12° NNW 19:12:29 12° NNW
Cosmos 1943 3.5 19:19:32 10° SW 19:24:41 64° W 19:24:41 64° W
Cosmos 1656 Rocket 4.2 19:23:04 10° NNW 19:27:30 54° WNW 19:27:30 54° WNW
Cosmos 2369 Rocket 4.1 19:31:05 10° NW 19:35:45 27° WSW 19:40:24 10° SSW
SL-16 R/B 4.4 19:42:49 10° WNW 19:46:29 17° NW 19:48:08 15° NNW
Lacrosse 5 4.2 20:04:51 10° W 20:06:36 21° W 20:06:36 21° W
CZ-4C R/B 4.0 20:05:19 10° WSW 20:07:47 26° W 20:07:47 26° W
